Location: Arrington
(35.8681°N, 86.7092°W)
Time: 05:03:40
(UTC+00:00)

BREEZE-M DEB (TANK) - Pass Details

Date: 23 November 2019
Orbit: 312 x 15763 km, 49.5° (Epoch: 05 December)

Event Time Altitude Azimuth Distance (km) Brightness Sun altitude
Rises 00:29:31 0° 239° (WSW) 2,905 7.2 -22.8°
Reaches altitude 10° 00:30:54 10° 241° (WSW) 2,325 6.5 -23.1°
Maximum altitude 00:35:52 77° 328° (NNW) 1,522 4.4 -24.1°
Enters shadow 00:47:17 24° 52° (NE) 5,562 6.9 -26.4°
Exits shadow 01:14:45 - 59° (ENE) 13,678 8.9 -31.9°
Sets 01:15:05 0° 60° (ENE) 13,757 8.9 -32.0°
